Location: Zeiss-Gro�planetarium Berlin
(52.5430°N, 13.4281°E)
Time: 22:49:09
(UTC+01:00)

ISS - Pass Details

Date: 23 September 2020
Orbit: 417 x 420 km, 51.6° (Epoch: 27 October)

Event Time Altitude Azimuth Distance (km) Brightness Sun altitude
Rises 19:23:47 0° 230° (SW) 2,359 0.8 -4.2°
Reaches altitude 10° 19:25:58 10° 221° (SW) 1,499 -0.4 -4.5°
Drops below altitude 10° 19:32:10 10° 88° (E) 1,506 -1.6 -5.5°
Enters shadow 19:32:48 - 84° (E) 1,754 -1.3 -5.6°
Exits shadow 20:07:10 -70° 68° (ENE) 12,459 3.6 -10.7°
Maximum altitude 21:05:38 75° 174° (S) 441 -3.9 -19.1°
